sat.trackr.live / text

‹ back to catalog

STARLINK-32460

NORAD 61914 · 2024-207C

PAYLOAD ACTIVE UNKNOWN

§ Identity

Operator
Country
US
Launch date
2024-11-11
Launch site
AFETR
Launch vehicle
Mass (kg)
RCS (m²)

Purposes: comms

External: N2YO · Heavens-Above · Gunter

§ Orbital elements

Epoch: 2026-05-24T21:48:24.319584Z

Period
94.27 min
Inclination
43.0027°
Eccentricity
0.0002173
Mean motion
15.27589458 rev/d
Perigee alt
481.5 km
Apogee alt
484.5 km
Semi-major
6,861.2 km
B*
6.4708e-4
RAAN
210.8840°
Arg perigee
284.1215°
Mean anomaly
75.9395°
Rev number
8,638

§ Raw data

STARLINK-324601 61914U 24207C   26144.90861481  .00017592  00000+0  64708-3 0  99912 61914  43.0027 210.8840 0002173 284.1215  75.9395 15.27589458 86385

JSON: /api/v1/satellites/61914 · /tle

For live sub-satellite position, see the globe view (requires WebGL).

§ Visibility from observer

Set your observer location to see the next 7 days of passes ≥ 10°. The values pass through the URL so the page stays shareable.

No JS? Fill the form by hand. The geolocation button needs JavaScript.